Location: George Washington National Forest Helicopter Landing Site
(38.6463°N, 79.0851°W)
Time: 10:45:51
(UTC-04:00)

Tiros 1 despin weight - Pass Details

Date: 24 August 2019
Orbit: 594 x 642 km, 48.2° (Epoch: 21 September)

Event Time Altitude Azimuth Distance (km) Brightness Sun altitude
Rises 22:32:55 0° 210° (SSW) 2,811 - -27.2°
Reaches altitude 10° 22:35:21 10° 200° (SSW) 1,914 - -27.5°
Maximum altitude 22:39:16 32° 137° (SE) 1,027 - -28.1°
Drops below altitude 10° 22:43:13 10° 74° (ENE) 1,937 - -28.6°
Sets 22:45:41 0° 65° (ENE) 2,849 - -29.0°
